This is the latest recevied weather packets stored in our database for station/object K3XY-2. If no packets are shown the sender has not sent any weather packets the latest 10 day(s).
| Time | Temp. | Humidity | Pressure | Rain* | Wind** | Luminosity | Snow |
|---|---|---|---|---|---|---|---|
| 1777933146 | 21.11° C | 40% | 1008.5 hPa | 0 mm | - | - | - |
| 1777932547 | 21.11° C | 40% | 1008.5 hPa | 0 mm | - | - | - |
| 1777931947 | 21.11° C | 39% | 1008.5 hPa | 0 mm | - | - | - |
| 1777931346 | 21.67° C | 39% | 1008.5 hPa | 0 mm | - | - | - |
| 1777930746 | 22.22° C | 39% | 1008.6 hPa | 0 mm | - | - | - |
| 1777930147 | 21.67° C | 41% | 1008.6 hPa | 0 mm | - | - | - |
| 1777929547 | 21.67° C | 40% | 1008.6 hPa | 0 mm | - | - | - |
| 1777928947 | 21.67° C | 40% | 1008.6 hPa | 0 mm | - | - | - |
| 1777928346 | 21.67° C | 40% | 1008.6 hPa | 0 mm | - | - | - |
| 1777927746 | 22.22° C | 45% | 1008.7 hPa | 0 mm | - | - | - |
| 1777927147 | 22.22° C | 41% | 1008.6 hPa | 0 mm | - | - | - |
| 1777926547 | 21.67° C | 39% | 1008.7 hPa | 0 mm | - | - | - |
| 1777925946 | 22.22° C | 40% | 1008.9 hPa | 0 mm | - | - | - |
| 1777925346 | 22.22° C | 41% | 1008.9 hPa | 0 mm | - | - | - |
| 1777924747 | 22.78° C | 41% | 1009.4 hPa | 0 mm | - | - | - |
| 1777924147 | 22.78° C | 40% | 1009.4 hPa | 0 mm | - | - | - |
| 1777923546 | 22.78° C | 42% | 1009.5 hPa | 0 mm | - | - | - |
| 1777922946 | 22.78° C | 40% | 1009.7 hPa | 0 mm | - | - | - |
| 1777922346 | 22.22° C | 41% | 1009.7 hPa | 0 mm | - | - | - |
| 1777921747 | 22.22° C | 41% | 1009.9 hPa | 0 mm | - | - | - |
| 1777921146 | 22.22° C | 44% | 1009.9 hPa | 0 mm | - | - | - |
| 1777920546 | 22.22° C | 42% | 1010.1 hPa | 0 mm | - | - | - |
| 1777919946 | 22.22° C | 39% | 1010.2 hPa | 0 mm | - | - | - |
| 1777919347 | 22.22° C | 45% | 1010.3 hPa | 0 mm | - | - | - |
| 1777918746 | 22.22° C | 41% | 1010.5 hPa | 0 mm | - | - | - |
* Rain latest hour (hover to see other rain measurements)
** Current wind speed in m/s (hover to see current wind gust speed)